FW7560 Weather Reports


time (UTC)temp
C
wind
direction
speed
KPH
gust
KPH
rain 1hr
cm
rain 24hr
cm
rain mn
cm
humidity
%
barometer
mb
20260504081603 3 0.0 0.0 0.00 0.00 0.00 82 1016.0
20260504044603 4 0.0 0.0 0.00 0.00 0.00 75 1016.8
20260504043058 4 0.0 0.0 0.00 0.00 0.00 73 1016.5
20260504041555 4 0.0 0.0 0.00 0.00 0.00 72 1016.5
20260504040104 5 0.0 0.0 0.00 0.00 0.00 71 1016.4
20260504034600 5 0.0 0.0 0.00 0.00 0.00 70 1016.6
20260504033126 5 0.0 0.0 0.00 0.00 0.00 68 1016.4
20260504031557 5 0.0 0.0 0.00 0.00 0.00 68 1016.2
20260504030056 5 0.0 0.0 0.00 0.00 0.00 67 1016.3
20260504024559 6 0.0 0.0 0.00 0.00 0.00 65 1016.6
20260504023102 6 0.0 0.0 0.00 0.00 0.00 63 1016.7
20260504021556 6 0.0 0.0 0.00 0.00 0.00 61 1016.5
20260504020058 7 0.0 0.0 0.00 0.00 0.00 60 1016.4
20260504014555 7 0.0 0.0 0.00 0.00 0.00 55 1016.2
20260504013107 8 0.0 0.0 0.00 0.00 0.00 53 1016.2
20260504011556 8 0.0 0.0 0.00 0.00 0.00 51 1016.0
20260504010109 10 0.0 0.0 0.00 0.00 0.00 48 1015.8
20260504004619 10 0.0 0.0 0.00 0.00 0.00 43 1015.8
20260504003054 11 0.0 0.0 0.00 0.00 0.00 41 1015.7
20260504001558 11 0.0 0.0 0.00 0.00 0.00 37 1015.5
20260504000053 12 0.0 0.0 0.00 0.00 0.00 35 1015.5
20260503234551 12 0.0 0.0 0.00 0.00 0.00 34 1015.7
20260503233054 12 0.0 0.0 0.00 0.00 0.00 33 1015.5
20260503231555 13 0.0 0.0 0.00 0.00 0.00 32 1016.0
20260503230059 13 0.0 0.0 0.00 0.00 0.00 31 1016.1
20260503224550 13 0.0 0.0 0.00 0.00 0.00 31 1016.1
20260503223054 14 0.0 0.0 0.00 0.00 0.00 34 1016.2
20260503221552 14 0.0 0.0 0.00 0.00 0.00 32 1016.2
20260503220051 14 0.0 0.0 0.00 0.00 0.00 34 1016.1
20260503214551 14 0.0 0.0 0.00 0.00 0.00 32 1016.2
20260503213103 14 0.0 0.0 0.00 0.00 0.00 30 1016.6
20260503211551 14 0.0 0.0 0.00 0.00 0.00 29 1016.6
20260503210100 14 0.0 0.0 0.00 0.00 0.00 29 1016.7
20260503204607 13 0.0 0.0 0.00 0.00 0.00 29 1016.7
20260503203101 14 0.0 0.0 0.00 0.00 0.00 32 1016.8
20260503201552 13 0.0 0.0 0.00 0.00 0.00 34 1017.0
20260503200100 13 0.0 0.0 0.00 0.00 0.00 35 1017.2
20260503194555 13 0.0 0.0 0.00 0.00 0.00 34 1017.4
20260503193101 12 0.0 0.0 0.00 0.00 0.00 34 1017.7
20260503191608 12 0.0 0.0 0.00 0.00 0.00 38 1017.8
20260503190051 12 0.0 0.0 0.00 0.00 0.00 36 1018.2
20260503184558 12 0.0 0.0 0.00 0.00 0.00 38 1018.1
20260503183112 12 0.0 0.0 0.00 0.00 0.00 35 1018.1
20260503181555 11 0.0 0.0 0.00 0.00 0.00 36 1018.0
20260503180052 11 0.0 0.0 0.00 0.00 0.00 37 1018.3
20260503174553 11 0.0 0.0 0.00 0.00 0.00 40 1018.3
20260503173114 11 0.0 0.0 0.00 0.00 0.00 40 1018.6
20260503171554 10 0.0 0.0 0.00 0.00 0.00 43 1018.8
20260503120108 1 0.0 0.0 0.00 0.00 0.00 81 1018.8